TimeEST,TemperatureF,Dew PointF,Humidity,Sea Level PressureIn,VisibilityMPH,Wind Direction,Wind SpeedMPH,Gust SpeedMPH,PrecipitationIn,Events,Conditions,WindDirDegrees,DateUTC
12:56 AM,46.0,34.0,63,30.18,10.0,SW,9.2,-,N/A,,Clear,230,2013-01-24 05:56:00
1:56 AM,46.9,35.1,63,30.18,10.0,WSW,12.7,-,N/A,,Clear,240,2013-01-24 06:56:00
2:56 AM,46.9,36.0,66,30.15,10.0,WSW,11.5,-,N/A,,Partly Cloudy,240,2013-01-24 07:56:00
3:56 AM,46.9,37.0,68,30.13,10.0,WSW,9.2,-,N/A,,Partly Cloudy,240,2013-01-24 08:56:00
4:56 AM,48.0,37.9,68,30.12,10.0,WSW,9.2,-,N/A,,Partly Cloudy,240,2013-01-24 09:56:00
5:56 AM,51.1,39.9,66,30.12,10.0,West,15.0,24.2,N/A,,Clear,260,2013-01-24 10:56:00
6:56 AM,50.0,39.9,68,30.13,10.0,WSW,10.4,-,N/A,,Partly Cloudy,250,2013-01-24 11:56:00
7:56 AM,50.0,41.0,71,30.14,10.0,West,11.5,-,N/A,,Partly Cloudy,260,2013-01-24 12:56:00
8:56 AM,54.0,43.0,66,30.15,10.0,West,16.1,24.2,N/A,,Partly Cloudy,270,2013-01-24 13:56:00
9:56 AM,57.9,43.0,58,30.17,10.0,West,12.7,24.2,N/A,,Partly Cloudy,280,2013-01-24 14:56:00
10:56 AM,62.1,41.0,46,30.17,10.0,NW,18.4,24.2,N/A,,Partly Cloudy,310,2013-01-24 15:56:00
11:56 AM,64.9,37.0,36,30.15,10.0,NW,15.0,21.9,N/A,,Partly Cloudy,320,2013-01-24 16:56:00
12:56 PM,66.9,32.0,27,30.14,10.0,NW,13.8,24.2,N/A,,Partly Cloudy,310,2013-01-24 17:56:00
1:56 PM,66.9,30.9,26,30.14,10.0,NNW,18.4,24.2,N/A,,Scattered Clouds,330,2013-01-24 18:56:00
2:56 PM,66.9,33.1,28,30.16,10.0,North,13.8,26.5,N/A,,Mostly Cloudy,10,2013-01-24 19:56:00
3:56 PM,59.0,36.0,42,30.21,10.0,NE,16.1,-,N/A,,Mostly Cloudy,40,2013-01-24 20:56:00
4:56 PM,53.1,32.0,45,30.25,10.0,NE,15.0,-,N/A,,Mostly Cloudy,50,2013-01-24 21:56:00
5:56 PM,48.0,25.0,41,30.32,10.0,NE,15.0,-,N/A,,Mostly Cloudy,50,2013-01-24 22:56:00
6:56 PM,45.0,23.0,42,30.36,10.0,ENE,13.8,18.4,N/A,,Scattered Clouds,60,2013-01-24 23:56:00
7:56 PM,43.0,19.9,40,30.40,10.0,ENE,15.0,21.9,N/A,,Partly Cloudy,60,2013-01-25 00:56:00
8:56 PM,41.0,19.0,41,30.43,10.0,ENE,17.3,-,N/A,,Clear,60,2013-01-25 01:56:00
9:56 PM,37.9,18.0,45,30.45,10.0,NE,12.7,20.7,N/A,,Clear,50,2013-01-25 02:56:00
10:56 PM,37.0,19.0,48,30.47,10.0,ENE,12.7,24.2,N/A,,Clear,70,2013-01-25 03:56:00
11:56 PM,34.0,19.0,54,30.46,10.0,ENE,9.2,20.7,N/A,,Scattered Clouds,60,2013-01-25 04:56:00